星链-4210 (STARLINK-4210 )

导读 | 豆包AI

STARLINK-4210是美国SpaceX星链(Starlink)星座中的一颗通信卫星,于2022年6月17日由猎鹰9号火箭发射升空,属于星链Group 4-16任务批次。该卫星运行在高度约548公里的近地轨道,重量约297千克,设计工作寿命5-7年,旨在为全球提供高速低延迟宽带互联网服务,退役后会主动离轨再入大气层销毁,减少太空垃圾。

基本信息
目录编号:
52874
目录名称:
STARLINK-4210
国际标识:
2022-062AW
轨道中心:
EARTH
卫星名称:
星链-4210
卫星全名:
星链-4210 (STARLINK-4210 )
卫星状态:
已陨落 最后检测时间 2025-10-17
发射日期:
2022-06-17 UTC
国别 :
美国 (US)
星等 :
--
轨道信息
数据来源 国际轨道数据
星历时间: 2025-10-17T08:59:10+0800
轨道信息已过期195天
半长轴: 6526.963km
偏心率: 0.0006236
轨道倾角: 53.198°
近地点辐角 232.264°
升交点赤经 259.160°
平近点角 127.785°
近地点: 144.757km
远地点: 152.899km
周期: 87.463分钟
每日圈数: 16.464027
详细信息
固有亮度:
5
最大亮度:
2.5
卫星平台:
Starlink v1.5
覆盖范围:
全球
运营商:
太空探索技术公司
运营商所在国:
美国
制造商(研发单位):
太空探索技术公司
制造商所在国:
美国
使用方式:
暂无
卫星简介
星链(Starlink)计划是由太空探索技术公司(SpaceX)提出的一个巨型低轨卫星互联网星座项目,计划在2019年至2024年间在太空搭建由约1.2万颗卫星组成的“星链”网络,其中1584颗将部署在地球上空550千米处的近地轨道,并从2020年开始工作。该卫星仍在工作。